Hourly Weather Rangpur

Today, 2 July, Thursday

Time Temperature Precipitation Wind Pressure Humidity
00:00 +31°C° 0 mm 3 mps 748 mmHg 81%
01:00 +30°C° 0.6 mm 3 mps 747 mmHg 83%
02:00 +30°C° 0.6 mm 3 mps 747 mmHg 85%
03:00 +30°C° 0.6 mm 3 mps 746 mmHg 87%
04:00 +30°C° 0.7 mm 3 mps 746 mmHg 87%
05:00 +30°C° 0.7 mm 3 mps 747 mmHg 88%
06:00 +30°C° 0 mm 2 mps 747 mmHg 89%
07:00 +31°C° 1.1 mm 3 mps 747 mmHg 84%
08:00 +33°C° 1.1 mm 3 mps 747 mmHg 79%
09:00 +34°C° 1.1 mm 3 mps 747 mmHg 74%
10:00 +35°C° 0.4 mm 3 mps 747 mmHg 71%
11:00 +35°C° 0.4 mm 4 mps 747 mmHg 69%
12:00 +35°C° 0 mm 5 mps 748 mmHg 69%
13:00 +36°C° 0.3 mm 5 mps 747 mmHg 67%
14:00 +36°C° 0.3 mm 4 mps 747 mmHg 66%
15:00 +36°C° 0.3 mm 4 mps 746 mmHg 65%
16:00 +35°C° 1.5 mm 4 mps 746 mmHg 69%
17:00 +34°C° 1.5 mm 4 mps 746 mmHg 73%
18:00 +32°C° 0 mm 2 mps 746 mmHg 81%
19:00 +32°C° 1.6 mm 2 mps 747 mmHg 82%
20:00 +31°C° 1.6 mm 2 mps 747 mmHg 83%
21:00 +31°C° 1.6 mm 2 mps 747 mmHg 85%
22:00 +30°C° 0.7 mm 3 mps 747 mmHg 85%
23:00 +30°C° 0.7 mm 3 mps 747 mmHg 86%

Tomorrow, 3 July, Friday

Time Temperature Precipitation Wind Pressure Humidity
00:00 +30°C° 0.7 mm 3 mps 747 mmHg 87%
01:00 +30°C° 2.2 mm 3 mps 747 mmHg 87%
02:00 +30°C° 2.2 mm 3 mps 747 mmHg 87%
03:00 +30°C° 2.2 mm 2 mps 746 mmHg 87%
04:00 +29°C° 2.2 mm 3 mps 747 mmHg 88%
05:00 +29°C° 2.2 mm 4 mps 747 mmHg 90%
06:00 +29°C° 2.2 mm 4 mps 747 mmHg 91%
07:00 +29°C° 1.1 mm 4 mps 747 mmHg 91%
08:00 +29°C° 1.1 mm 4 mps 748 mmHg 90%
09:00 +29°C° 1.1 mm 5 mps 748 mmHg 90%
10:00 +29°C° 0.6 mm 4 mps 748 mmHg 88%
11:00 +30°C° 0.6 mm 4 mps 748 mmHg 87%
12:00 +30°C° 0.6 mm 3 mps 748 mmHg 85%
13:00 +30°C° 0.6 mm 3 mps 748 mmHg 84%
14:00 +31°C° 0.6 mm 3 mps 747 mmHg 83%
15:00 +31°C° 0.6 mm 2 mps 747 mmHg 82%
16:00 +30°C° 0.5 mm 3 mps 747 mmHg 84%
17:00 +30°C° 0.5 mm 3 mps 747 mmHg 87%
18:00 +29°C° 0.5 mm 3 mps 747 mmHg 89%
19:00 +29°C° 0.1 mm 3 mps 747 mmHg 89%
20:00 +29°C° 0.1 mm 3 mps 747 mmHg 90%
21:00 +29°C° 0.1 mm 3 mps 748 mmHg 91%
22:00 +28°C° 0.6 mm 3 mps 748 mmHg 91%
23:00 +28°C° 0.6 mm 2 mps 748 mmHg 91%

Day after tomorrow, 4 July, Saturday

Time Temperature Precipitation Wind Pressure Humidity
00:00 +28°C° 0.6 mm 2 mps 748 mmHg 92%
01:00 +28°C° 3.6 mm 2 mps 747 mmHg 92%
02:00 +28°C° 3.6 mm 2 mps 747 mmHg 92%
03:00 +28°C° 3.6 mm 3 mps 746 mmHg 93%
04:00 +28°C° 5.6 mm 3 mps 747 mmHg 93%
05:00 +28°C° 5.6 mm 4 mps 747 mmHg 94%
06:00 +28°C° 5.6 mm 4 mps 747 mmHg 94%
07:00 +28°C° 7.3 mm 4 mps 747 mmHg 94%
08:00 +28°C° 7.3 mm 4 mps 748 mmHg 94%
09:00 +28°C° 7.3 mm 4 mps 748 mmHg 94%
10:00 +28°C° 1.5 mm 3 mps 748 mmHg 93%
11:00 +28°C° 1.5 mm 3 mps 748 mmHg 92%
12:00 +28°C° 1.5 mm 3 mps 748 mmHg 92%
13:00 +29°C° 0 mm 3 mps 748 mmHg 90%
14:00 +29°C° 0 mm 4 mps 747 mmHg 89%
15:00 +30°C° 0 mm 4 mps 747 mmHg 87%
16:00 +30°C° 0.2 mm 4 mps 746 mmHg 87%
17:00 +30°C° 0.2 mm 4 mps 746 mmHg 87%
18:00 +30°C° 0.2 mm 4 mps 746 mmHg 87%
19:00 +30°C° 0.1 mm 4 mps 747 mmHg 88%
20:00 +29°C° 0.1 mm 4 mps 747 mmHg 90%
21:00 +29°C° 0.1 mm 4 mps 747 mmHg 91%
22:00 +29°C° 0.2 mm 4 mps 748 mmHg 92%
23:00 +28°C° 0.2 mm 4 mps 748 mmHg 92%

5 July, Sunday

Time Temperature Precipitation Wind Pressure Humidity
00:00 +28°C° 0.2 mm 4 mps 748 mmHg 93%
01:00 +28°C° 0.4 mm 4 mps 747 mmHg 93%
02:00 +28°C° 0.4 mm 3 mps 747 mmHg 94%
03:00 +28°C° 0.4 mm 3 mps 747 mmHg 95%
04:00 +28°C° 0.8 mm 4 mps 747 mmHg 94%
05:00 +28°C° 0.8 mm 4 mps 747 mmHg 94%
06:00 +28°C° 0.8 mm 4 mps 747 mmHg 94%
07:00 +29°C° 0.1 mm 4 mps 747 mmHg 89%
08:00 +30°C° 0.1 mm 4 mps 747 mmHg 85%
09:00 +32°C° 0.1 mm 4 mps 748 mmHg 81%
10:00 +33°C° 1.2 mm 4 mps 747 mmHg 79%
11:00 +33°C° 1.2 mm 4 mps 747 mmHg 76%
12:00 +34°C° 1.2 mm 4 mps 747 mmHg 74%
13:00 +34°C° 2.2 mm 4 mps 746 mmHg 73%
14:00 +35°C° 2.2 mm 4 mps 746 mmHg 73%
15:00 +35°C° 2.2 mm 4 mps 745 mmHg 72%
16:00 +34°C° 2.9 mm 4 mps 745 mmHg 75%
17:00 +33°C° 2.9 mm 4 mps 745 mmHg 79%
18:00 +33°C° 2.9 mm 4 mps 745 mmHg 82%
19:00 +32°C° 0.9 mm 4 mps 745 mmHg 84%
20:00 +30°C° 0.9 mm 5 mps 746 mmHg 85%
21:00 +30°C° 0.9 mm 5 mps 747 mmHg 87%
22:00 +29°C° 0.5 mm 5 mps 747 mmHg 89%
23:00 +29°C° 0.5 mm 5 mps 747 mmHg 90%

6 July, Monday

Time Temperature Precipitation Wind Pressure Humidity
00:00 +29°C° 0.5 mm 5 mps 747 mmHg 91%
01:00 +29°C° 0.1 mm 5 mps 746 mmHg 91%
02:00 +28°C° 0.1 mm 5 mps 746 mmHg 92%
03:00 +28°C° 0.1 mm 5 mps 746 mmHg 92%
04:00 +28°C° 0 mm 5 mps 745 mmHg 91%
05:00 +28°C° 0 mm 4 mps 745 mmHg 91%
06:00 +28°C° 0 mm 4 mps 745 mmHg 91%
07:00 +29°C° 0.1 mm 5 mps 746 mmHg 87%
08:00 +30°C° 0.1 mm 5 mps 747 mmHg 83%
09:00 +32°C° 0.1 mm 5 mps 747 mmHg 80%
10:00 +33°C° 0.5 mm 4 mps 747 mmHg 77%
11:00 +33°C° 0.5 mm 4 mps 747 mmHg 74%
12:00 +34°C° 0.5 mm 3 mps 747 mmHg 72%
13:00 +35°C° 0.5 mm 3 mps 746 mmHg 69%
14:00 +35°C° 0.5 mm 3 mps 745 mmHg 67%
15:00 +36°C° 0.5 mm 3 mps 745 mmHg 65%
16:00 +35°C° 0.1 mm 3 mps 745 mmHg 67%
17:00 +35°C° 0.1 mm 3 mps 744 mmHg 70%
18:00 +35°C° 0.1 mm 3 mps 744 mmHg 73%
19:00 +34°C° 0.4 mm 3 mps 745 mmHg 76%
20:00 +33°C° 0.4 mm 3 mps 746 mmHg 78%
21:00 +31°C° 0.4 mm 3 mps 746 mmHg 81%
22:00 +31°C° 0.7 mm 3 mps 747 mmHg 82%
23:00 +31°C° 0.7 mm 3 mps 747 mmHg 84%

7 July, Tuesday

Time Temperature Precipitation Wind Pressure Humidity
00:00 +30°C° 0.7 mm 3 mps 747 mmHg 85%
01:00 +30°C° 0.1 mm 4 mps 747 mmHg 86%
02:00 +30°C° 0.1 mm 4 mps 747 mmHg 87%
03:00 +29°C° 0.1 mm 4 mps 746 mmHg 89%
04:00 +29°C° 0 mm 4 mps 747 mmHg 89%
05:00 +29°C° 0 mm 3 mps 747 mmHg 89%
06:00 +29°C° 0 mm 3 mps 747 mmHg 89%
07:00 +30°C° 0.5 mm 4 mps 747 mmHg 84%
08:00 +32°C° 0.5 mm 4 mps 748 mmHg 80%
09:00 +33°C° 0.5 mm 5 mps 748 mmHg 76%
10:00 +34°C° 1 mm 5 mps 748 mmHg 74%
11:00 +35°C° 1 mm 5 mps 748 mmHg 71%
12:00 +35°C° 1 mm 5 mps 748 mmHg 69%
13:00 +36°C° 0.2 mm 5 mps 747 mmHg 68%
14:00 +36°C° 0.2 mm 4 mps 747 mmHg 66%
15:00 +36°C° 0.2 mm 4 mps 746 mmHg 65%
16:00 +36°C° 0.1 mm 4 mps 746 mmHg 67%
17:00 +35°C° 0.1 mm 3 mps 746 mmHg 70%
18:00 +35°C° 0.1 mm 3 mps 746 mmHg 72%
19:00 +34°C° 0 mm 3 mps 747 mmHg 75%
20:00 +33°C° 0 mm 3 mps 747 mmHg 78%
21:00 +31°C° 0 mm 3 mps 748 mmHg 81%
22:00 +31°C° 0.7 mm 3 mps 748 mmHg 82%
23:00 +32°C° 0.7 mm 4 mps 748 mmHg 84%
Show more